N10AU -KBHM

Flight info

Callsign N10AU
Flight time N/A
Altitude VFR
Route
Aircraft C525/L-DOV/C

Departure

Time N/A
Airport -

Arrival

Time 2026-04-21 05:04
Airport Birmingham-Shuttlesworth International Airport (KBHM)
Time Latitude Longitude Altitude Speed Heading
2026-04-21 04:49 33.01435 -85.97236 10822 ft 253 kts 314°
2026-04-21 04:50 33.02564 -85.98829 10819 ft 251 kts 313°
2026-04-21 04:50 33.03693 -86.00407 10820 ft 249 kts 314°
2026-04-21 04:50 33.04809 -86.01983 10803 ft 248 kts 313°
2026-04-21 04:50 33.05937 -86.03561 10821 ft 253 kts 314°
2026-04-21 04:51 33.07079 -86.05175 10898 ft 258 kts 313°
2026-04-21 04:51 33.08267 -86.06835 10785 ft 268 kts 313°
2026-04-21 04:51 33.09489 -86.08565 10663 ft 277 kts 313°
2026-04-21 04:51 33.10747 -86.10330 10563 ft 282 kts 313°
2026-04-21 04:52 33.12019 -86.12135 10471 ft 286 kts 313°
2026-04-21 04:52 33.13307 -86.13940 10467 ft 285 kts 313°
2026-04-21 04:52 33.14565 -86.15724 10465 ft 285 kts 313°
2026-04-21 04:52 33.15845 -86.17521 10465 ft 284 kts 313°
2026-04-21 04:53 33.17114 -86.19328 10462 ft 284 kts 313°
2026-04-21 04:53 33.18413 -86.21150 10463 ft 284 kts 313°
2026-04-21 04:53 33.19669 -86.22937 10465 ft 284 kts 313°
2026-04-21 04:53 33.20927 -86.24707 10421 ft 276 kts 313°
2026-04-21 04:54 33.22146 -86.26445 10333 ft 271 kts 313°
2026-04-21 04:54 33.23356 -86.28143 10210 ft 267 kts 314°
2026-04-21 04:54 33.24542 -86.29837 10076 ft 264 kts 313°
2026-04-21 04:54 33.25727 -86.31500 9940 ft 262 kts 314°
2026-04-21 04:55 33.26894 -86.33169 9804 ft 261 kts 313°
2026-04-21 04:55 33.28075 -86.34806 9668 ft 259 kts 315°
2026-04-21 04:55 33.29268 -86.36420 9507 ft 258 kts 313°
2026-04-21 04:55 33.30409 -86.38058 8987 ft 255 kts 313°
2026-04-21 04:56 33.31542 -86.39673 8479 ft 252 kts 313°
2026-04-21 04:56 33.32655 -86.41273 7973 ft 249 kts 313°
2026-04-21 04:56 33.33769 -86.42846 7475 ft 247 kts 312°
2026-04-21 04:56 33.34860 -86.44410 6991 ft 246 kts 312°
2026-04-21 04:57 33.35776 -86.46165 6480 ft 249 kts 297°
2026-04-21 04:57 33.36492 -86.48046 5976 ft 248 kts 297°
2026-04-21 04:57 33.37203 -86.49924 5479 ft 248 kts 295°
2026-04-21 04:57 33.37917 -86.51796 4979 ft 247 kts 296°
2026-04-21 04:58 33.38633 -86.53656 4478 ft 246 kts 295°
2026-04-21 04:58 33.39358 -86.55507 3979 ft 245 kts 296°
2026-04-21 04:58 33.40086 -86.57347 3483 ft 244 kts 295°
2026-04-21 04:58 33.40825 -86.59174 2991 ft 245 kts 295°
2026-04-21 04:59 33.41539 -86.60980 2833 ft 232 kts 296°
2026-04-21 04:59 33.42233 -86.62666 2705 ft 221 kts 295°
2026-04-21 04:59 33.42888 -86.64318 2580 ft 219 kts 296°
2026-04-21 04:59 33.43551 -86.65959 2536 ft 218 kts 294°
2026-04-21 05:00 33.44195 -86.67591 2513 ft 214 kts 296°
2026-04-21 05:00 33.44831 -86.69156 2495 ft 204 kts 296°
2026-04-21 05:00 33.45994 -86.72060 2484 ft 183 kts 295°
2026-04-21 05:01 33.46544 -86.73398 2488 ft 176 kts 301°
2026-04-21 05:01 33.47394 -86.74305 2491 ft 154 kts 330°
2026-04-21 05:01 33.48302 -86.74695 2480 ft 129 kts 352°
2026-04-21 05:01 33.49128 -86.74652 2427 ft 110 kts
2026-04-21 05:02 33.49881 -86.74608 2138 ft 109 kts 355°
2026-04-21 05:02 33.50632 -86.74652 1871 ft 108 kts 355°
2026-04-21 05:02 33.51379 -86.74699 1638 ft 108 kts 354°
2026-04-21 05:02 33.52134 -86.74722 1417 ft 107 kts 359°
2026-04-21 05:03 33.52885 -86.74719 1251 ft 108 kts 360°
2026-04-21 05:03 33.53647 -86.74720 1097 ft 110 kts 360°
2026-04-21 05:03 33.54402 -86.74721 944 ft 108 kts
2026-04-21 05:03 33.55150 -86.74722 711 ft 106 kts
2026-04-21 05:04 33.55839 -86.74720 608 ft 88 kts
2026-04-21 05:04 33.56371 -86.74720 612 ft 51 kts 360°
2026-04-21 05:04 33.56602 -86.74720 623 ft 15 kts 360°
2026-04-21 05:04 33.56640 -86.74643 623 ft 13 kts 92°
2026-04-21 05:05 33.56640 -86.74525 622 ft 15 kts 90°
2026-04-21 05:05 33.56641 -86.74407 624 ft 14 kts 91°
2026-04-21 05:05 33.56631 -86.74344 626 ft 0 kts 68°